User: anonymous   Login
Location: Young's Pond
(41.2695°N, 72.7766°W)
Time: 03:45:49
(UTC-05:00)
Language:

CZ-4B R/B - Orbit

View from above orbital plane
View from above orbital plane
View from above satellite
View from above satellite

Ground track
Ground track

The orbit data is extracted from the following two-line orbital elements,

1 29093U 06015B   14329.18731237  .00010080  00000-0  34130-3 0  4578
2 29093 097.5099 049.4097 0087053 055.4221 358.2095 15.27143227474123
Epoch (UTC): 25 November 2014 04:29:43
Eccentricity: 0.0087053
inclination: 97.5099°
perigee height: 424 km
apogee height: 544 km
right ascension of ascending node: 49.4097°
argument of perigee: 55.4221°
revolutions per day: 15.27143227
mean anomaly at epoch: 358.2095°
orbit number at epoch: 47412

The dashed part of the orbit path shows where the satellite is in the earth's shadow,  

DLR